Dewpoint
30 30 30 29 29 29 28 28 28 29 29 30 30 31 32 32 32 32 32 32 33 33 34 34 34 34 36 37 38 38 38 40 41 42 42 43 43 44 45 45 45 45 45 46 47 48 49 50 51 52 52 53 53 53 53 53 53 53 54 54 54 54 54 54 55 55 55 55 55 55 55 56 56 56 57 59 61 63 64 64 63 63 62 62 62 63 64 65 65 65 65 65 64 64 65 65 65 66 66 66 66 66 66
28 28 27 28 28 29 29 29 29 29 30 31 31 31 31 31 31 31 31 31 32 32 32 33 33 33 34 35 36 36 36 36 38 39 40 41 41 43 43 43 43 43 43 44 44 46 47 48 49 50 51 52 52 52 53 53 53 53 54 54 54 54 54 54 54 54 55 55 55 54 55 55 55 56 56 57 59 61 63 64 63 63 62 62 62 62 63 64 65 65 65 65 65 65 65 65 65 66 66 66 66 66 66
26 26 27 28 29 30 30 31 31 31 30 31 31 31 30 30 30 30 30 30 31 31 31 32 32 32 33 34 34 34 34 34 35 37 38 39 39 41 42 42 43 43 43 44 44 45 46 46 47 47 48 49 51 52 52 52 52 53 53 54 54 54 54 54 54 54 55 55 55 54 54 54 54 55 55 56 57 59 61 63 63 63 62 62 62 62 63 63 64 65 65 65 65 65 65 65 65 65 65 65 65 66 66
26 28 29 29 30 31 31 31 31 32 30 30 31 32 30 29 29 29 29 30 30 30 31 31 31 32 32 32 32 33 33 33 34 35 36 36 37 40 41 41 42 43 43 43 44 45 45 45 45 45 46 47 49 51 52 52 52 53 53 54 54 54 54 54 54 54 55 55 55 54 54 54 54 54 54 55 56 57 59 61 63 63 63 63 62 62 62 62 63 64 64 65 65 65 65 66 66 65 65 65 65 65 66
28 29 30 30 30 31 31 30 30 30 30 30 30 30 29 29 29 29 29 29 30 30 31 31 31 31 32 32 32 32 33 34 35 35 35 34 35 38 39 40 40 41 43 43 43 45 46 46 46 46 46 47 48 49 49 48 49 49 50 51 52 52 52 52 52 52 53 54 54 55 55 54 54 54 54 54 55 56 57 59 61 62 63 63 63 62 62 62 62 63 64 64 65 65 65 65 66 66 65 65 65 66 66
29 30 30 30 30 30 30 29 29 29 29 29 29 29 29 29 29 29 29 29 30 30 31 31 31 31 31 32 32 32 32 34 36 35 35 35 34 34 36 37 38 38 41 42 42 42 44 45 46 46 47 47 47 47 46 46 46 46 47 47 48 48 48 48 48 48 50 52 52 54 54 54 54 54 54 54 55 56 56 58 59 61 62 62 62 62 62 62 62 63 63 64 64 65 65 65 65 65 65 65 65 66 66
30 30 30 30 30 30 30 29 29 29 29 29 29 29 29 29 29 29 29 29 30 30 30 31 31 31 31 32 32 32 33 34 37 37 37 36 37 38 37 38 38 38 39 40 40 39 40 42 43 44 44 44 45 45 44 44 45 46 46 46 46 46 47 48 48 47 49 50 51 51 51 52 52 52 53 54 54 55 56 57 58 60 61 61 61 61 61 61 61 62 63 63 63 63 64 65 65 65 65 65 65 65 66
30 30 30 29 29 29 29 30 29 29 29 29 29 29 29 29 29 29 29 29 30 30 30 30 31 31 31 31 32 32 33 34 36 36 37 38 39 39 37 38 39 39 40 40 40 41 42 42 42 41 41 42 43 43 43 44 44 45 44 44 45 46 47 48 48 48 49 50 50 50 49 50 51 52 52 53 53 54 55 56 57 58 60 61 62 61 61 61 61 61 62 63 63 64 64 64 64 64 64 64 64 65 65
30 29 29 29 29 29 30 30 30 29 29 29 29 29 29 29 29 29 29 29 30 30 30 30 30 30 31 31 32 33 33 34 34 35 38 38 38 38 37 37 37 37 38 38 38 38 38 38 38 37 37 38 39 40 41 42 42 42 42 43 44 45 46 47 47 47 48 49 50 50 49 50 51 52 52 53 53 54 55 56 56 58 59 60 61 61 61 61 61 61 61 62 63 64 64 65 64 63 63 63 64 64 65
29 29 29 29 29 29 29 30 30 29 29 29 29 29 29 29 29 29 29 29 29 29 29 29 30 30 30 31 32 33 34 34 34 36 38 38 38 38 37 37 36 35 35 34 34 34 34 35 35 35 35 36 37 37 38 39 39 40 41 42 43 44 45 46 46 46 47 48 48 48 49 49 50 51 52 53 53 53 54 55 56 57 58 59 59 60 61 61 61 61 61 62 63 64 65 65 64 63 62 61 62 62 63
29 29 29 29 29 29 29 29 29 29 29 30 30 29 29 29 29 29 29 29 29 29 29 29 29 30 30 31 32 33 33 33 34 37 38 38 38 38 37 37 36 36 35 35 35 35 35 35 35 35 36 36 36 37 38 38 39 40 41 42 43 44 45 45 45 45 46 47 48 48 49 49 49 50 52 52 53 53 54 54 55 56 57 58 59 59 60 61 61 60 61 61 62 64 64 65 65 64 62 61 61 61 61
29 29 29 29 29 29 29 29 29 29 29 30 30 29 29 29 29 29 29 29 29 29 29 29 29 29 30 31 32 32 32 33 35 37 37 37 37 37 37 37 37 37 37 36 36 36 36 36 36 36 37 37 38 38 39 39 40 41 42 43 44 45 46 46 46 45 46 47 48 48 49 49 50 50 51 51 52 53 53 54 55 56 57 58 59 59 59 59 59 59 60 61 61 63 64 64 64 64 63 62 61 59 60
29 29 29 29 29 29 29 29 29 29 29 30 30 29 29 29 29 29 29 28 28 29 29 29 29 29 30 31 31 31 32 33 34 35 36 37 37 37 37 37 37 38 38 38 38 38 37 37 37 37 38 38 38 39 39 40 40 41 42 43 44 44 46 46 46 45 47 47 48 49 49 50 50 50 50 51 52 53 54 54 55 56 57 59 60 60 59 59 59 59 61 61 61 61 62 63 64 64 64 63 61 58 59
29 29 29 29 29 29 29 29 29 29 29 29 29 29 29 29 29 28 28 28 28 28 28 29 29 29 30 31 31 31 32 33 34 35 36 37 37 37 37 37 37 38 38 38 38 38 38 38 38 38 38 39 39 39 40 40 40 40 41 42 43 43 44 46 47 46 47 48 49 49 50 51 51 51 51 52 52 53 54 55 56 56 58 59 60 60 59 59 59 59 60 60 60 61 61 62 63 64 63 63 61 59 58
29 29 29 29 29 29 29 29 29 29 29 29 29 29 29 28 28 28 28 28 28 28 28 29 29 29 29 30 31 31 32 33 34 35 35 36 37 37 37 37 37 37 38 38 38 38 38 38 39 39 40 40 40 40 40 40 40 40 41 41 41 42 43 44 45 46 46 47 47 47 49 50 51 52 52 52 52 53 54 55 55 56 57 59 60 60 60 59 59 59 59 59 59 60 61 61 62 63 63 62 61 60 58
29 29 29 29 29 29 29 29 29 29 29 29 29 29 29 28 28 28 28 27 27 27 28 29 29 29 29 29 30 30 31 33 34 34 35 36 36 38 37 37 37 37 37 37 38 38 39 39 39 39 40 40 40 40 40 40 40 40 40 40 41 41 41 42 43 44 45 46 46 46 47 48 49 50 51 52 52 52 53 54 55 55 56 58 60 60 60 60 59 59 59 59 59 59 60 61 61 61 62 62 61 61 59
29 29 29 29 29 29 29 29 29 29 29 29 29 28 29 28 28 28 27 27 27 27 28 29 29 29 29 29 30 31 31 32 33 34 34 35 36 37 37 37 37 37 37 37 37 38 38 38 38 38 39 39 39 40 40 40 40 40 40 40 41 41 41 41 42 42 43 45 45 45 45 46 47 48 49 50 51 52 53 54 54 55 56 57 59 60 60 60 60 60 60 60 59 59 59 60 60 61 61 61 62 61 60
29 29 29 29 29 29 29 29 29 29 29 29 28 28 28 28 27 27 27 27 27 28 28 28 29 29 29 29 30 31 31 32 33 34 34 35 36 36 37 37 37 37 37 37 37 37 38 38 38 38 38 38 39 39 40 40 40 40 40 40 41 41 41 41 41 42 42 43 44 44 44 45 46 46 48 49 50 51 52 54 54 55 56 57 58 60 60 60 60 60 61 60 60 59 59 59 60 60 61 61 61 61 59
29 29 29 29 29 29 29 29 29 29 28 28 28 28 28 27 27 27 27 27 27 28 28 28 28 29 29 29 30 31 32 32 33 34 34 35 36 36 37 37 38 38 37 37 37 38 38 38 38 38 38 38 38 39 39 40 40 40 40 41 41 41 41 41 41 42 42 42 43 43 43 44 45 46 47 48 49 50 52 53 54 56 56 57 58 60 60 60 60 60 60 60 60 60 60 60 60 60 60 61 61 61 60
29 29 29 29 29 29 29 29 29 28 28 28 28 27 27 27 27 27 27 27 27 28 28 28 29 29 29 29 30 31 32 32 33 34 34 35 36 36 37 37 38 38 38 38 38 38 38 38 38 38 38 38 38 39 39 39 40 40 40 41 41 41 41 41 42 42 42 42 42 43 43 44 45 46 47 47 48 50 52 53 55 56 56 57 58 59 60 60 61 60 61 61 61 61 61 60 60 60 60 61 61 61 61
29 29 29 29 29 29 29 28 28 28 28 27 27 27 27 27 27 27 27 27 27 28 28 28 29 29 29 29 30 31 31 32 33 34 34 35 35 36 37 37 37 37 38 38 38 38 38 38 38 38 38 38 39 39 39 40 40 40 41 41 41 41 41 41 41 42 42 42 42 42 43 43 44 46 46 47 48 49 52 53 55 56 56 57 58 60 60 60 60 60 61 61 61 61 60 60 60 60 61 61 61 61 61
29 29 29 29 29 29 28 28 28 27 27 27 27 27 27 27 27 27 27 27 27 28 28 28 29 29 29 29 30 30 31 32 33 34 34 35 35 36 37 37 37 38 38 38 38 38 39 39 39 39 39 39 39 39 39 40 40 41 41 41 41 41 41 41 41 41 41 42 42 42 42 43 44 45 45 46 47 48 51 52 55 56 57 58 59 60 60 60 60 60 60 60 60 60 60 60 60 60 60 61 61 61 60
29 29 29 29 28 28 28 28 27 27 27 27 26 26 26 26 26 27 27 27 27 28 28 28 29 29 29 30 30 30 31 32 33 34 34 35 35 36 37 37 38 38 38 38 38 39 39 39 39 40 40 40 40 40 40 41 41 41 41 41 41 41 41 41 41 40 41 41 41 41 41 42 43 43 44 44 46 47 49 52 53 55 56 58 59 59 60 60 60 60 60 59 60 60 60 60 60 60 60 60 60 60 60
29 29 29 28 28 28 28 27 27 27 26 26 26 26 26 26 26 26 26 27 27 27 28 29 29 29 29 29 30 31 31 32 33 34 34 35 36 36 37 37 38 38 38 38 39 39 39 39 40 40 40 41 41 40 41 41 41 41 41 41 41 41 41 41 41 40 40 40 40 40 41 41 42 43 43 44 45 47 49 51 53 55 56 57 58 59 59 59 59 59 59 59 59 59 59 60 60 60 60 60 61 60 60
29 29 28 28 28 28 27 27 27 26 26 26 26 26 26 26 26 26 26 26 27 27 29 29 29 29 29 29 30 30 31 32 32 33 34 35 36 36 37 38 38 38 38 39 39 40 40 40 40 41 41 41 41 41 41 42 42 42 41 41 41 41 42 42 41 41 40 40 40 40 41 41 42 43 44 45 46 47 49 51 53 55 56 57 58 58 59 59 59 59 59 59 59 59 59 59 60 61 61 61 61 61 60
29 29 28 28 28 28 27 27 26 26 26 26 25 25 25 25 25 25 26 26 26 27 28 29 28 29 29 29 29 30 30 31 32 33 34 34 35 36 37 38 38 39 39 39 39 40 40 41 41 41 41 42 42 42 42 42 42 42 41 41 41 41 42 42 42 41 41 41 41 41 42 42 42 43 43 44 45 46 48 51 53 56 57 58 58 58 59 59 59 59 59 59 59 58 59 59 60 61 61 61 61 61 60
29 28 28 28 28 27 27 26 26 26 25 25 25 25 25 25 25 25 26 26 26 27 28 28 28 28 28 29 29 29 30 32 33 33 34 35 36 37 38 38 39 39 39 39 40 40 40 41 42 42 42 43 43 43 43 43 43 42 42 41 41 41 42 42 42 42 41 41 42 42 42 42 43 43 43 43 44 45 47 49 53 56 58 58 58 58 58 59 59 59 59 59 58 58 58 58 59 59 60 60 60 60 60
28 28 28 28 27 27 26 26 25 25 25 25 25 25 25 25 25 25 26 26 26 27 29 29 28 28 28 29 29 29 30 31 33 34 34 35 36 37 38 38 39 39 39 40 41 41 42 42 43 43 43 43 44 43 43 43 43 43 43 42 42 42 43 43 43 42 42 42 42 42 43 43 43 43 43 43 44 45 46 48 52 56 57 58 58 58 59 59 59 59 59 58 58 58 58 58 58 59 59 60 60 60 60
28 28 28 27 27 27 26 26 25 25 25 25 25 25 25 25 25 25 26 26 26 27 28 28 28 27 28 28 29 29 31 32 32 32 34 35 36 37 38 38 39 39 40 40 41 41 42 42 43 43 43 44 44 44 45 45 45 45 44 43 43 43 44 44 43 43 42 42 42 42 42 43 43 43 43 43 43 44 45 46 48 52 55 57 58 58 59 59 59 59 59 58 58 58 58 58 59 60 59 59 59 60 60
28 28 27 27 27 26 26 25 25 25 25 24 24 24 24 24 25 25 25 26 26 27 28 28 27 27 28 28 29 29 30 31 32 32 34 35 36 36 37 38 38 39 40 40 41 41 42 43 43 43 43 44 44 45 46 46 46 46 46 45 45 46 45 45 44 43 43 42 42 42 42 43 43 43 42 43 43 43 44 45 47 49 52 55 57 58 58 58 59 59 59 59 58 58 58 59 59 59 59 59 59 60 60
28 27 27 27 26 26 25 25 25 25 24 24 24 24 24 24 24 25 25 25 25 26 27 27 27 27 28 28 29 29 29 30 31 32 34 34 35 36 37 38 38 39 40 41 42 42 43 43 43 44 44 45 45 45 46 47 47 47 47 47 47 47 47 46 45 45 43 43 43 43 43 43 43 43 43 43 43 44 45 45 46 48 51 54 56 57 57 58 58 58 58 58 58 58 59 59 60 59 59 59 59 59 59
27 27 27 26 26 26 25 25 25 25 24 25 25 24 24 24 24 24 25 25 25 26 27 27 27 27 27 28 28 29 30 30 31 32 33 34 35 37 38 38 39 40 41 41 42 43 43 43 44 44 45 45 46 46 46 47 47 47 47 47 47 47 47 47 46 45 45 45 44 44 43 43 43 43 43 43 44 44 45 46 47 49 52 54 56 57 57 58 58 58 58 57 57 57 58 59 60 59 59 59 58 58 59
27 27 26 26 26 25 25 25 25 24 24 24 24 24 24 24 24 25 25 25 25 26 27 27 27 27 27 28 29 30 31 32 32 33 34 34 35 37 38 38 39 40 41 41 42 42 43 43 43 44 45 45 46 47 47 47 47 47 47 47 47 47 48 47 47 47 46 46 45 45 44 43 43 43 43 43 43 44 44 46 47 49 51 53 54 56 56 57 57 57 57 57 57 57 58 59 60 59 59 58 57 57 58
26 26 26 26 26 25 25 25 25 24 24 24 24 24 24 24 24 25 25 25 25 26 26 26 26 26 27 29 31 32 33 33 33 34 34 34 35 36 37 38 39 40 40 41 41 42 43 43 43 44 44 45 46 46 47 47 47 47 48 48 48 48 48 48 48 48 47 46 46 45 44 44 44 44 44 43 43 44 45 46 47 48 50 52 53 55 56 56 57 57 57 57 57 57 58 59 60 59 58 57 57 57 58
26 26 26 26 26 25 25 25 25 25 25 24 24 24 24 24 24 24 25 26 27 26 26 26 26 26 27 29 31 32 32 33 33 34 34 35 35 37 37 38 39 39 40 40 41 42 42 43 43 44 45 45 46 47 47 47 47 47 48 48 49 49 49 48 48 48 47 47 46 46 44 44 44 44 44 44 44 44 45 45 46 47 48 50 52 54 55 56 57 57 57 57 57 57 58 58 59 58 57 56 56 57 57
25 25 25 25 26 26 26 25 25 25 25 24 24 24 24 24 24 25 26 26 27 26 26 26 26 27 28 29 31 31 32 32 33 34 34 35 36 37 37 38 38 39 39 40 41 42 42 43 43 44 45 47 47 48 48 49 49 48 49 49 50 50 49 49 49 48 48 47 46 45 44 44 44 45 45 45 44 44 45 45 46 47 48 49 51 53 55 56 56 57 57 57 57 57 57 58 59 59 57 56 56 57 57
25 25 25 25 26 26 26 26 26 26 25 24 24 24 24 24 25 26 27 27 26 25 26 27 28 28 28 29 31 31 32 32 33 34 34 35 36 37 37 38 38 39 39 40 41 42 42 43 44 45 46 47 49 50 51 51 51 51 51 51 51 51 50 49 49 48 48 47 46 45 44 44 44 45 45 44 44 44 45 45 46 47 47 49 51 53 55 56 56 57 57 56 56 57 57 58 58 59 58 57 57 57 56
24 25 25 25 26 26 26 26 26 26 25 24 24 24 24 25 26 28 28 28 27 26 28 29 29 28 28 29 30 31 32 32 33 34 34 35 36 37 37 38 38 39 39 40 41 42 42 43 44 45 46 47 48 49 51 52 52 52 52 51 51 51 50 50 49 48 48 47 47 46 45 45 45 45 44 44 44 45 45 46 46 47 48 49 52 54 55 56 56 56 56 56 56 56 57 57 58 58 58 57 57 56 56
24 25 25 26 26 26 26 26 26 26 25 24 24 24 24 25 27 28 28 28 28 28 29 29 29 28 27 28 29 31 32 33 33 34 34 35 36 36 37 38 38 38 39 40 41 41 42 43 43 44 45 46 47 48 49 50 51 51 51 51 51 51 50 50 49 49 48 47 47 47 46 46 45 45 44 44 45 45 45 46 47 47 49 51 52 54 56 56 56 56 56 56 56 56 56 57 57 58 58 57 57 56 56
25 25 25 25 25 25 26 26 26 26 25 25 25 24 25 26 27 28 28 28 28 29 29 29 29 28 27 28 29 31 32 33 33 34 34 35 36 36 37 37 38 38 39 39 40 41 42 42 43 43 44 45 46 47 48 49 50 51 50 50 50 50 50 50 49 49 48 48 47 47 47 46 45 45 44 44 45 45 46 46 47 48 50 52 53 55 56 56 56 56 56 56 56 56 56 57 57 58 58 58 57 56 56
25 25 25 25 25 25 25 26 26 26 26 25 25 26 26 27 27 27 28 28 28 28 29 29 29 29 28 29 29 31 32 33 33 34 34 35 36 36 37 37 38 38 38 39 40 40 41 42 42 43 43 44 46 47 48 49 50 51 50 50 49 49 49 49 49 48 48 48 47 47 46 46 45 45 45 45 45 45 46 47 48 49 51 52 53 55 56 56 56 56 56 56 56 57 56 57 57 57 58 57 57 56 56
25 25 25 25 25 25 25 26 26 26 26 26 26 27 27 27 27 27 27 28 28 28 29 29 29 29 29 29 30 31 32 32 33 34 34 35 35 36 36 37 37 38 38 38 39 40 40 41 41 42 43 44 45 46 47 48 50 50 50 49 48 47 48 48 47 47 47 47 47 46 46 46 46 45 45 45 45 45 46 47 48 50 51 52 53 55 55 56 56 56 57 57 57 57 57 57 57 57 57 57 57 56 56
25 25 25 25 25 25 25 25 26 26 26 26 26 26 26 27 27 27 27 27 28 28 28 29 29 29 29 29 31 32 31 32 33 34 34 35 35 35 36 36 37 37 38 38 38 39 39 40 41 41 42 43 44 45 47 48 49 50 50 48 47 47 47 47 47 47 47 47 47 46 46 46 46 45 45 45 45 45 46 47 48 50 51 52 54 55 55 56 56 56 56 57 57 57 57 57 57 57 57 57 57 56 56
25 25 25 25 25 25 25 25 25 26 26 26 26 26 26 27 27 27 27 27 28 28 28 29 29 29 29 30 31 32 32 33 33 34 34 34 35 35 36 36 36 37 37 37 38 38 39 39 40 41 42 43 44 45 46 48 49 50 49 48 47 47 46 46 46 46 46 46 46 46 46 46 46 46 45 45 45 46 47 47 49 50 52 53 54 55 56 56 56 56 56 57 57 57 57 57 57 57 57 57 57 56 56
25 25 25 25 25 25 25 25 25 26 26 26 26 26 27 27 27 27 27 27 27 28 28 28 29 29 29 30 31 32 32 33 33 34 34 34 34 35 35 35 35 36 36 37 38 38 38 39 40 41 42 43 44 45 46 47 49 50 49 48 47 46 46 46 46 45 45 45 46 46 46 46 46 47 47 47 47 47 48 49 50 52 52 53 54 55 56 56 56 56 56 57 57 57 57 57 57 57 57 57 57 56 56
24 24 25 25 25 25 25 25 25 26 26 26 26 26 26 27 27 27 27 27 27 27 28 28 29 29 30 31 31 32 32 32 33 33 34 34 34 34 34 34 34 35 36 37 38 38 39 39 40 41 42 43 44 45 46 47 48 49 48 47 47 46 46 45 45 45 45 45 45 45 45 46 46 47 48 48 49 50 50 51 52 52 53 54 55 56 56 57 57 56 57 57 57 57 57 56 56 56 57 56 56 57 56
24 24 24 25 25 25 25 25 25 25 26 26 26 26 26 26 27 27 27 27 27 27 28 28 29 29 30 31 31 32 32 32 32 33 33 34 34 32 32 32 32 34 36 37 38 38 39 39 40 41 42 43 43 44 46 47 48 50 48 47 47 47 46 46 45 44 44 44 44 44 45 45 46 47 48 50 52 53 53 53 54 54 55 55 56 56 57 57 57 57 57 57 57 57 56 56 56 56 56 56 56 56 56
24 24 24 24 24 25 25 25 25 25 25 25 26 26 26 26 26 27 27 27 27 28 28 28 29 29 30 30 31 31 32 32 32 33 33 33 33 31 31 31 32 34 36 37 38 38 39 39 40 41 42 43 43 44 45 46 47 49 49 48 47 47 46 46 46 45 44 44 44 45 45 45 46 47 48 51 53 55 55 55 55 55 56 56 56 56 57 57 57 57 57 57 57 57 56 56 56 56 56 56 56 56 56
24 24 24 24 24 25 25 25 25 25 25 25 25 25 25 26 26 26 26 27 27 27 28 28 29 29 30 30 31 31 32 32 32 32 33 33 33 31 32 32 33 34 35 37 38 38 39 40 40 41 42 42 43 43 45 46 47 48 50 50 48 47 47 46 46 46 46 45 45 45 46 46 47 47 48 51 52 54 55 56 56 56 56 56 56 57 56 56 56 57 57 57 57 57 56 56 56 56 56 56 56 56 56
24 24 24 23 24 24 24 25 25 25 24 24 24 25 25 25 25 26 26 26 27 27 27 28 29 29 30 30 31 31 32 32 32 32 32 33 33 32 33 34 35 35 36 37 38 38 39 40 40 41 41 42 42 43 44 45 47 47 50 51 51 49 47 47 47 46 46 47 47 47 47 47 48 49 50 51 52 53 55 56 56 56 56 57 56 56 52 50 50 52 55 57 58 58 57 56 56 56 56 56 56 56 56
24 24 24 23 23 23 23 23 23 23 23 23 23 24 25 25 25 26 26 26 27 27 28 28 29 29 29 30 31 31 31 31 32 32 32 32 32 33 34 34 35 35 36 37 38 38 39 39 40 40 41 41 42 43 44 45 46 47 49 51 52 52 50 49 49 48 48 48 48 48 49 50 50 51 52 52 52 53 55 56 56 56 56 56 56 53 48 47 47 48 50 52 56 59 57 57 56 56 56 56 56 56 56
24 24 23 23 23 23 23 23 23 23 23 23 23 24 25 25 25 26 26 26 27 27 28 28 29 29 29 30 31 31 31 31 31 32 32 32 32 33 34 34 34 35 36 37 38 38 39 39 39 40 40 41 41 42 43 44 45 47 48 51 52 54 53 52 52 52 52 51 50 52 52 52 52 52 53 53 54 55 55 56 56 56 56 56 55 50 47 46 46 47 47 49 52 58 58 57 57 56 56 56 56 56 56
24 24 23 23 23 23 23 23 23 23 23 24 24 24 24 25 25 26 26 26 26 27 28 28 29 29 30 30 31 31 31 31 31 31 31 32 32 33 34 34 34 35 36 37 38 38 38 39 39 39 39 40 41 41 42 43 45 47 48 51 53 54 54 54 54 54 53 53 52 54 53 53 54 54 54 55 55 56 56 55 55 56 56 55 52 47 46 45 46 47 47 47 49 52 56 57 56 56 56 56 56 56 56
24 24 24 24 24 24 24 24 24 24 24 24 24 24 25 25 25 26 26 26 26 27 28 28 29 29 30 30 31 31 31 31 31 31 31 32 32 33 33 34 34 35 36 37 37 38 38 38 38 38 39 39 40 41 42 43 45 47 48 50 52 52 52 52 52 53 53 53 54 54 53 53 54 55 55 55 55 55 55 55 55 55 55 52 48 44 44 44 45 46 46 46 47 49 55 56 57 56 56 56 56 56 56
24 24 24 25 25 24 24 24 24 24 24 24 25 25 25 25 26 26 26 26 26 27 28 29 29 30 30 30 30 30 30 30 30 30 31 31 32 32 33 33 34 35 36 36 37 37 38 38 38 38 38 39 40 41 41 42 43 45 46 47 47 48 48 48 49 49 50 50 51 52 52 53 53 54 54 54 54 54 54 55 54 54 54 52 47 44 44 44 44 45 45 45 45 46 51 55 57 56 56 56 56 56 56
24 24 25 25 25 25 25 24 24 24 25 25 25 25 26 26 26 26 26 26 27 28 29 29 29 30 30 30 30 30 30 30 30 30 30 31 31 32 32 33 34 34 35 36 37 37 37 37 37 37 38 38 39 39 40 41 42 43 43 44 45 45 45 46 46 46 47 47 47 48 50 50 51 51 52 52 53 53 52 52 53 54 52 49 45 44 44 44 45 45 45 45 44 44 48 53 56 56 56 56 55 55 56
24 25 25 25 25 25 25 25 25 25 25 25 25 26 26 26 27 27 27 27 28 29 29 29 29 29 29 29 29 29 29 29 29 29 30 30 31 31 32 33 33 34 35 36 36 36 36 36 37 37 37 38 38 38 38 39 40 40 41 42 43 43 44 44 44 44 44 45 45 46 47 47 47 48 48 48 49 51 52 52 51 50 47 45 43 43 44 44 45 45 45 44 44 44 47 51 53 54 53 52 51 51 51
24 25 25 25 25 25 25 25 25 25 25 25 26 26 26 26 27 27 27 28 28 29 29 29 29 29 29 29 29 29 29 29 29 29 29 30 30 31 31 32 33 34 34 35 36 36 36 36 36 36 36 37 37 37 37 38 38 38 39 40 41 41 42 42 42 42 43 43 43 44 45 46 46 46 47 47 47 48 49 49 47 46 46 44 43 43 44 44 44 44 44 44 44 44 47 49 50 49 48 47 47 46 47
25 25 25 25 25 25 25 25 25 25 25 25 26 26 26 26 26 27 27 28 28 29 29 29 29 29 29 29 29 28 28 28 28 28 29 29 30 30 31 31 32 33 34 34 35 35 35 35 35 35 36 36 36 36 36 36 37 37 38 38 39 39 40 40 40 41 41 41 42 43 43 44 44 45 46 46 47 47 47 47 46 45 45 43 42 43 43 43 43 44 43 43 43 43 46 47 47 46 45 44 44 43 43